| time (UTC) | temp C | wind direction | speed KPH | gust KPH | rain 1hr cm | rain 24hr cm | rain mn cm | humidity % | barometer mb |
| 20260901130119 | 15 | 322 | 0.0 | 0.0 | 0.00 | 0.00 | 0.00 | 90 | 1018.8 |
| 20260901125617 | 15 | 331 | 0.0 | 0.0 | 0.00 | 0.00 | 0.00 | 91 | 1018.6 |
| 20260901125108 | 15 | 321 | 0.0 | 0.0 | 0.00 | 0.00 | 0.00 | 92 | 1018.8 |
| 20260901124607 | 14 | 1 | 1.6 | 1.6 | 0.00 | 0.00 | 0.00 | 92 | 1019.0 |
| 20260901124102 | 14 | 324 | 0.0 | 1.6 | 0.00 | 0.00 | 0.00 | 92 | 1018.9 |
| 20260901123557 | 14 | 8 | 3.2 | 3.2 | 0.00 | 0.00 | 0.00 | 93 | 1019.1 |
| 20260901123056 | 14 | 317 | 0.0 | 0.0 | 0.00 | 0.00 | 0.00 | 94 | 1018.9 |
| 20260901122555 | 13 | 301 | 0.0 | 0.0 | 0.00 | 0.00 | 0.00 | 99 | 1018.8 |
| 20260901122055 | 13 | 292 | 0.0 | 0.0 | 0.00 | 0.00 | 0.00 | 99 | 1018.6 |
| 20260901121550 | 13 | 321 | 0.0 | 0.0 | 0.00 | 0.00 | 0.00 | 99 | 1018.8 |
| 20260901121045 | 13 | 288 | 0.0 | 0.0 | 0.00 | 0.00 | 0.00 | 99 | 1018.6 |
| 20260901120545 | 13 | 296 | 0.0 | 0.0 | 0.00 | 0.00 | 0.00 | 99 | 1018.7 |
| 20260901120041 | 13 | 296 | 0.0 | 0.0 | 0.00 | 0.00 | 0.00 | 99 | 1018.5 |
| 20260901115536 | 12 | 302 | 0.0 | 0.0 | 0.00 | 0.00 | 0.00 | 99 | 1018.7 |
| 20260901115033 | 12 | 302 | 0.0 | 0.0 | 0.00 | 0.00 | 0.00 | 99 | 1018.6 |
| 20260901114528 | 12 | 301 | 0.0 | 0.0 | 0.00 | 0.00 | 0.00 | 99 | 1018.5 |
| 20260901114026 | 12 | 310 | 0.0 | 0.0 | 0.00 | 0.00 | 0.00 | 99 | 1018.6 |
| 20260901113525 | 12 | 312 | 0.0 | 0.0 | 0.00 | 0.00 | 0.00 | 99 | 1018.5 |
| 20260901113016 | 12 | 307 | 0.0 | 0.0 | 0.00 | 0.00 | 0.00 | 99 | 1018.7 |
| 20260901112510 | 12 | 307 | 0.0 | 0.0 | 0.00 | 0.00 | 0.00 | 99 | 1018.4 |
| 20260901112005 | 11 | 310 | 0.0 | 0.0 | 0.00 | 0.00 | 0.00 | 99 | 1018.4 |
| 20260901111504 | 11 | 303 | 0.0 | 0.0 | 0.00 | 0.00 | 0.00 | 99 | 1018.3 |
| 20260901111003 | 11 | 303 | 0.0 | 0.0 | 0.00 | 0.00 | 0.00 | 99 | 1018.4 |
| 20260901110458 | 11 | 301 | 0.0 | 0.0 | 0.00 | 0.00 | 0.00 | 99 | 1018.3 |
| 20260901105954 | 11 | 312 | 0.0 | 0.0 | 0.00 | 0.00 | 0.00 | 99 | 1018.2 |
| 20260901105450 | 11 | 311 | 0.0 | 0.0 | 0.00 | 0.00 | 0.00 | 99 | 1018.3 |
| 20260901104950 | 11 | 311 | 0.0 | 0.0 | 0.00 | 0.00 | 0.00 | 99 | 1018.2 |
| 20260901104446 | 11 | 305 | 0.0 | 0.0 | 0.00 | 0.00 | 0.00 | 99 | 1018.3 |
| 20260901103940 | 11 | 303 | 0.0 | 0.0 | 0.00 | 0.00 | 0.00 | 99 | 1018.1 |
| 20260901103435 | 11 | 303 | 0.0 | 0.0 | 0.00 | 0.00 | 0.00 | 99 | 1017.9 |
| 20260901102930 | 11 | 302 | 0.0 | 0.0 | 0.00 | 0.00 | 0.00 | 99 | 1018.0 |
| 20260901102425 | 11 | 302 | 0.0 | 0.0 | 0.00 | 0.00 | 0.00 | 99 | 1017.8 |
| 20260901101919 | 10 | 312 | 0.0 | 0.0 | 0.00 | 0.00 | 0.00 | 99 | 1017.7 |
| 20260901101415 | 10 | 309 | 0.0 | 0.0 | 0.00 | 0.00 | 0.00 | 99 | 1017.8 |
| 20260901100914 | 10 | 312 | 0.0 | 0.0 | 0.00 | 0.00 | 0.00 | 99 | 1017.9 |
| 20260901100408 | 10 | 320 | 0.0 | 0.0 | 0.00 | 0.00 | 0.00 | 99 | 1017.8 |
| 20260901095902 | 10 | 312 | 0.0 | 0.0 | 0.00 | 0.00 | 0.00 | 99 | 1017.9 |
| 20260901095401 | 10 | 316 | 0.0 | 0.0 | 0.00 | 0.00 | 0.00 | 99 | 1017.9 |
| 20260901094854 | 10 | 308 | 0.0 | 0.0 | 0.00 | 0.00 | 0.00 | 99 | 1018.0 |
| 20260901094349 | 10 | 313 | 0.0 | 0.0 | 0.00 | 0.00 | 0.00 | 99 | 1017.9 |
| 20260901093843 | 10 | 317 | 0.0 | 0.0 | 0.00 | 0.00 | 0.00 | 99 | 1017.9 |
| 20260901093343 | 10 | 313 | 0.0 | 0.0 | 0.00 | 0.00 | 0.00 | 99 | 1017.9 |
| 20260901092839 | 10 | 316 | 0.0 | 0.0 | 0.00 | 0.00 | 0.00 | 99 | 1017.8 |
| 20260901092334 | 10 | 317 | 0.0 | 0.0 | 0.00 | 0.00 | 0.00 | 99 | 1017.8 |
| 20260901091830 | 10 | 317 | 0.0 | 0.0 | 0.00 | 0.00 | 0.00 | 99 | 1018.0 |
| 20260901091324 | 10 | 317 | 0.0 | 0.0 | 0.00 | 0.00 | 0.00 | 99 | 1018.0 |
| 20260901090819 | 10 | 317 | 0.0 | 0.0 | 0.00 | 0.00 | 0.00 | 99 | 1018.0 |
| 20260901090314 | 10 | 317 | 0.0 | 0.0 | 0.00 | 0.00 | 0.00 | 99 | 1018.0 |
| 20260901085810 | 10 | 317 | 0.0 | 0.0 | 0.00 | 0.00 | 0.00 | 99 | 1017.8 |
| 20260901085306 | 10 | 317 | 0.0 | 0.0 | 0.00 | 0.00 | 0.00 | 99 | 1017.9 |
| 20260901084802 | 10 | 317 | 0.0 | 0.0 | 0.00 | 0.00 | 0.00 | 99 | 1018.1 |
| 20260901084258 | 9 | 317 | 0.0 | 0.0 | 0.00 | 0.00 | 0.00 | 99 | 1017.9 |
| 20260901083757 | 10 | 317 | 0.0 | 0.0 | 0.00 | 0.00 | 0.00 | 99 | 1017.9 |
| 20260901083257 | 10 | 317 | 0.0 | 0.0 | 0.00 | 0.00 | 0.00 | 99 | 1017.9 |
| 20260901082755 | 9 | 317 | 0.0 | 0.0 | 0.00 | 0.00 | 0.00 | 99 | 1017.9 |
| 20260901082251 | 10 | 317 | 0.0 | 0.0 | 0.00 | 0.00 | 0.00 | 99 | 1017.8 |
| 20260901081746 | 10 | 317 | 0.0 | 0.0 | 0.00 | 0.00 | 0.00 | 99 | 1018.1 |
| 20260901081246 | 10 | 317 | 0.0 | 0.0 | 0.00 | 0.00 | 0.00 | 99 | 1018.1 |
| 20260901080741 | 10 | 317 | 0.0 | 0.0 | 0.00 | 0.00 | 0.00 | 99 | 1017.8 |
| 20260901080235 | 10 | 317 | 0.0 | 0.0 | 0.00 | 0.00 | 0.00 | 99 | 1018.0 |
| 20260901075734 | 10 | 319 | 0.0 | 0.0 | 0.00 | 0.00 | 0.00 | 99 | 1018.0 |
| 20260901075230 | 10 | 325 | 0.0 | 0.0 | 0.00 | 0.00 | 0.00 | 99 | 1018.0 |
| 20260901074724 | 9 | 326 | 0.0 | 0.0 | 0.00 | 0.00 | 0.00 | 99 | 1018.0 |
| 20260901074220 | 9 | 326 | 0.0 | 0.0 | 0.00 | 0.00 | 0.00 | 99 | 1018.0 |
| 20260901073716 | 10 | 326 | 0.0 | 0.0 | 0.00 | 0.00 | 0.00 | 99 | 1018.0 |
| 20260901073211 | 10 | 321 | 0.0 | 0.0 | 0.00 | 0.00 | 0.00 | 99 | 1018.0 |
| 20260901072706 | 10 | 316 | 0.0 | 0.0 | 0.00 | 0.00 | 0.00 | 99 | 1018.1 |
| 20260901072201 | 10 | 316 | 0.0 | 0.0 | 0.00 | 0.00 | 0.00 | 99 | 1018.2 |
| 20260901071700 | 10 | 316 | 0.0 | 0.0 | 0.00 | 0.00 | 0.00 | 99 | 1018.2 |
| 20260901071155 | 10 | 316 | 0.0 | 0.0 | 0.00 | 0.00 | 0.00 | 99 | 1018.4 |
| 20260901070649 | 9 | 316 | 0.0 | 0.0 | 0.00 | 0.00 | 0.00 | 99 | 1018.2 |
| 20260901070144 | 10 | 316 | 0.0 | 0.0 | 0.00 | 0.00 | 0.00 | 99 | 1018.2 |
| 20260901065643 | 10 | 316 | 0.0 | 0.0 | 0.00 | 0.00 | 0.00 | 99 | 1018.0 |
| 20260901065138 | 10 | 316 | 0.0 | 0.0 | 0.00 | 0.00 | 0.00 | 99 | 1018.2 |
| 20260901064635 | 10 | 316 | 0.0 | 0.0 | 0.00 | 0.00 | 0.00 | 99 | 1018.1 |
| 20260901064132 | 10 | 316 | 0.0 | 0.0 | 0.00 | 0.00 | 0.00 | 99 | 1018.0 |
| 20260901063629 | 10 | 316 | 0.0 | 0.0 | 0.00 | 0.00 | 0.00 | 99 | 1018.1 |
| 20260901063124 | 10 | 316 | 0.0 | 0.0 | 0.00 | 0.00 | 0.00 | 99 | 1018.1 |
| 20260901062619 | 10 | 315 | 0.0 | 0.0 | 0.00 | 0.00 | 0.00 | 99 | 1018.2 |
| 20260901062115 | 10 | 313 | 0.0 | 0.0 | 0.00 | 0.00 | 0.00 | 99 | 1018.4 |
| 20260901061611 | 10 | 314 | 0.0 | 0.0 | 0.00 | 0.00 | 0.00 | 99 | 1018.3 |
| 20260901061105 | 10 | 313 | 0.0 | 0.0 | 0.00 | 0.00 | 0.00 | 99 | 1018.2 |
| 20260901060600 | 10 | 310 | 0.0 | 0.0 | 0.00 | 0.00 | 0.00 | 99 | 1018.4 |
| 20260901060056 | 10 | 311 | 0.0 | 0.0 | 0.00 | 0.00 | 0.00 | 99 | 1018.5 |
| 20260901055551 | 11 | 315 | 0.0 | 0.0 | 0.00 | 0.00 | 0.00 | 99 | 1018.3 |
| 20260901055048 | 10 | 311 | 0.0 | 0.0 | 0.00 | 0.00 | 0.00 | 99 | 1018.4 |
| 20260901054544 | 10 | 307 | 0.0 | 0.0 | 0.00 | 0.00 | 0.00 | 99 | 1018.5 |
| 20260901054040 | 10 | 319 | 0.0 | 0.0 | 0.00 | 0.00 | 0.00 | 99 | 1018.6 |
| 20260901053536 | 10 | 318 | 0.0 | 0.0 | 0.00 | 0.00 | 0.00 | 99 | 1018.4 |
| 20260901053032 | 10 | 320 | 0.0 | 0.0 | 0.00 | 0.00 | 0.00 | 99 | 1018.6 |
| 20260901052532 | 10 | 322 | 0.0 | 0.0 | 0.00 | 0.00 | 0.00 | 99 | 1018.3 |
| 20260901052031 | 10 | 322 | 0.0 | 0.0 | 0.00 | 0.00 | 0.00 | 99 | 1018.4 |
| 20260901051526 | 10 | 322 | 0.0 | 0.0 | 0.00 | 0.00 | 0.00 | 99 | 1018.4 |
| 20260901051025 | 10 | 322 | 0.0 | 0.0 | 0.00 | 0.00 | 0.00 | 99 | 1018.2 |
| 20260901050521 | 10 | 322 | 0.0 | 0.0 | 0.00 | 0.00 | 0.00 | 99 | 1018.4 |
| 20260901050017 | 10 | 322 | 0.0 | 0.0 | 0.00 | 0.00 | 0.00 | 99 | 1018.3 |
| 20260901045512 | 10 | 322 | 0.0 | 0.0 | 0.00 | 0.00 | 0.00 | 99 | 1018.4 |
| 20260901045012 | 10 | 322 | 0.0 | 0.0 | 0.00 | 0.00 | 0.00 | 99 | 1018.2 |
| 20260901044508 | 10 | 322 | 0.0 | 0.0 | 0.00 | 0.00 | 0.00 | 99 | 1018.4 |
| 20260901044003 | 10 | 322 | 0.0 | 0.0 | 0.00 | 0.00 | 0.00 | 99 | 1018.3 |
| 20260901043459 | 10 | 322 | 0.0 | 0.0 | 0.00 | 0.00 | 0.00 | 99 | 1018.1 |
| 20260901042954 | 10 | 322 | 0.0 | 0.0 | 0.00 | 0.00 | 0.00 | 99 | 1018.2 |
| 20260901042453 | 10 | 322 | 0.0 | 0.0 | 0.00 | 0.00 | 0.00 | 99 | 1018.1 |
| 20260901041949 | 10 | 322 | 0.0 | 0.0 | 0.00 | 0.00 | 0.00 | 99 | 1018.1 |
| 20260901041443 | 10 | 322 | 0.0 | 0.0 | 0.00 | 0.00 | 0.00 | 99 | 1018.2 |
| 20260901040943 | 10 | 322 | 0.0 | 0.0 | 0.00 | 0.00 | 0.00 | 99 | 1018.2 |
| 20260901040433 | 10 | 322 | 0.0 | 0.0 | 0.00 | 0.00 | 0.00 | 99 | 1018.2 |
| 20260901035932 | 11 | 322 | 0.0 | 0.0 | 0.00 | 0.00 | 0.00 | 99 | 1018.2 |
| 20260901035431 | 10 | 322 | 0.0 | 0.0 | 0.00 | 0.00 | 0.00 | 99 | 1018.2 |
| 20260901034929 | 11 | 322 | 0.0 | 0.0 | 0.00 | 0.00 | 0.00 | 99 | 1018.4 |
| 20260901034424 | 11 | 322 | 0.0 | 0.0 | 0.00 | 0.00 | 0.00 | 99 | 1018.3 |
| 20260901033919 | 10 | 322 | 0.0 | 0.0 | 0.00 | 0.00 | 0.00 | 99 | 1018.5 |
| 20260901033418 | 11 | 322 | 0.0 | 0.0 | 0.00 | 0.00 | 0.00 | 99 | 1018.1 |
| 20260901032917 | 11 | 322 | 0.0 | 0.0 | 0.00 | 0.00 | 0.00 | 99 | 1018.5 |
| 20260901032416 | 11 | 328 | 0.0 | 0.0 | 0.00 | 0.00 | 0.00 | 99 | 1018.4 |
| 20260901031912 | 11 | 332 | 0.0 | 0.0 | 0.00 | 0.00 | 0.00 | 99 | 1018.4 |
| 20260901031407 | 11 | 317 | 0.0 | 0.0 | 0.00 | 0.00 | 0.00 | 99 | 1018.5 |
| 20260901030907 | 11 | 318 | 0.0 | 0.0 | 0.00 | 0.00 | 0.00 | 99 | 1018.4 |
| 20260901030402 | 11 | 318 | 0.0 | 0.0 | 0.00 | 0.00 | 0.00 | 99 | 1018.4 |
| 20260901025901 | 11 | 319 | 0.0 | 0.0 | 0.00 | 0.00 | 0.00 | 99 | 1018.3 |
| 20260901025356 | 11 | 319 | 0.0 | 0.0 | 0.00 | 0.00 | 0.00 | 99 | 1018.4 |
| 20260901024851 | 11 | 314 | 0.0 | 0.0 | 0.00 | 0.00 | 0.00 | 99 | 1018.6 |
| 20260901024350 | 11 | 316 | 0.0 | 0.0 | 0.00 | 0.00 | 0.00 | 99 | 1018.3 |
| 20260901023849 | 11 | 313 | 0.0 | 0.0 | 0.00 | 0.00 | 0.00 | 99 | 1018.5 |
| 20260901023344 | 12 | 313 | 0.0 | 0.0 | 0.00 | 0.00 | 0.00 | 99 | 1018.5 |
| 20260901022838 | 11 | 306 | 0.0 | 0.0 | 0.00 | 0.00 | 0.00 | 99 | 1018.4 |
| 20260901022334 | 11 | 316 | 0.0 | 0.0 | 0.00 | 0.00 | 0.00 | 99 | 1018.3 |
| 20260901021830 | 11 | 316 | 0.0 | 0.0 | 0.00 | 0.00 | 0.00 | 99 | 1018.4 |
| 20260901021325 | 11 | 319 | 0.0 | 0.0 | 0.00 | 0.00 | 0.00 | 99 | 1018.6 |
| 20260901020820 | 12 | 317 | 0.0 | 0.0 | 0.00 | 0.00 | 0.00 | 99 | 1018.5 |
| 20260901020315 | 12 | 313 | 0.0 | 0.0 | 0.00 | 0.00 | 0.00 | 99 | 1018.3 |
| 20260901015810 | 12 | 324 | 0.0 | 0.0 | 0.00 | 0.00 | 0.00 | 99 | 1018.6 |
| 20260901015307 | 12 | 324 | 0.0 | 0.0 | 0.00 | 0.00 | 0.00 | 99 | 1018.5 |
| 20260901014805 | 12 | 339 | 0.0 | 0.0 | 0.00 | 0.00 | 0.00 | 99 | 1018.4 |
| 20260901014301 | 12 | 350 | 0.0 | 0.0 | 0.00 | 0.00 | 0.00 | 99 | 1018.3 |
| 20260901013756 | 12 | 315 | 0.0 | 0.0 | 0.00 | 0.00 | 0.00 | 99 | 1018.4 |
| 20260901013252 | 12 | 313 | 0.0 | 0.0 | 0.00 | 0.00 | 0.00 | 99 | 1018.3 |
| 20260901012742 | 12 | 322 | 0.0 | 0.0 | 0.00 | 0.00 | 0.00 | 98 | 1018.3 |
| 20260901012242 | 12 | 322 | 0.0 | 0.0 | 0.00 | 0.00 | 0.00 | 98 | 1018.1 |
| 20260901011737 | 12 | 322 | 0.0 | 0.0 | 0.00 | 0.00 | 0.00 | 98 | 1017.9 |
| 20260901011232 | 12 | 322 | 0.0 | 0.0 | 0.00 | 0.00 | 0.00 | 98 | 1018.3 |
| 20260901010726 | 13 | 323 | 0.0 | 0.0 | 0.00 | 0.00 | 0.00 | 97 | 1018.1 |
| 20260901010221 | 13 | 324 | 0.0 | 0.0 | 0.00 | 0.00 | 0.00 | 96 | 1018.4 |
| 20260901005714 | 13 | 326 | 0.0 | 0.0 | 0.00 | 0.00 | 0.00 | 96 | 1018.4 |
| 20260901005209 | 13 | 339 | 0.0 | 0.0 | 0.00 | 0.00 | 0.00 | 96 | 1018.2 |
| 20260901004709 | 13 | 311 | 0.0 | 0.0 | 0.00 | 0.00 | 0.00 | 95 | 1018.4 |
| 20260901004203 | 13 | 314 | 0.0 | 0.0 | 0.00 | 0.00 | 0.00 | 94 | 1018.2 |
| 20260901003658 | 14 | 315 | 0.0 | 0.0 | 0.00 | 0.00 | 0.00 | 93 | 1018.3 |
| 20260901003157 | 14 | 314 | 0.0 | 0.0 | 0.00 | 0.00 | 0.00 | 92 | 1018.5 |
| 20260901002651 | 15 | 310 | 0.0 | 0.0 | 0.00 | 0.00 | 0.00 | 91 | 1018.3 |
| 20260901002146 | 15 | 282 | 0.0 | 0.0 | 0.00 | 0.00 | 0.00 | 90 | 1018.2 |
| 20260901001642 | 15 | 304 | 0.0 | 0.0 | 0.00 | 0.00 | 0.00 | 90 | 1018.2 |
| 20260901001137 | 15 | 251 | 1.6 | 1.6 | 0.00 | 0.00 | 0.00 | 90 | 1018.2 |
| 20260901000632 | 15 | 316 | 0.0 | 0.0 | 0.00 | 0.00 | 0.00 | 92 | 1018.2 |
| 20260901000130 | 15 | 305 | 0.0 | 0.0 | 0.00 | 0.00 | 0.00 | 92 | 1017.9 |
| 20260831235621 | 15 | 311 | 0.0 | 0.0 | 0.00 | 0.00 | 0.00 | 90 | 1018.0 |
| 20260831235117 | 15 | 310 | 0.0 | 0.0 | 0.00 | 0.00 | 0.00 | 90 | 1018.2 |
| 20260831234616 | 16 | 286 | 0.0 | 0.0 | 0.00 | 0.00 | 0.00 | 88 | 1018.0 |
| 20260831234112 | 16 | 303 | 0.0 | 0.0 | 0.00 | 0.00 | 0.00 | 87 | 1018.1 |
| 20260831233607 | 16 | 6 | 0.0 | 0.0 | 0.00 | 0.00 | 0.00 | 88 | 1018.2 |
| 20260831233102 | 16 | 342 | 0.0 | 0.0 | 0.00 | 0.00 | 0.00 | 87 | 1018.1 |
| 20260831232557 | 16 | 331 | 0.0 | 0.0 | 0.00 | 0.00 | 0.00 | 85 | 1018.1 |
| 20260831232053 | 17 | 341 | 0.0 | 0.0 | 0.00 | 0.00 | 0.00 | 84 | 1018.1 |
| 20260831231549 | 17 | 286 | 0.0 | 0.0 | 0.00 | 0.00 | 0.00 | 82 | 1018.2 |
| 20260831231044 | 17 | 262 | 0.0 | 0.0 | 0.00 | 0.00 | 0.00 | 81 | 1018.4 |
| 20260831230540 | 17 | 325 | 0.0 | 0.0 | 0.00 | 0.00 | 0.00 | 80 | 1018.2 |
| 20260831230039 | 18 | 161 | 0.0 | 0.0 | 0.00 | 0.00 | 0.00 | 78 | 1018.4 |
| 20260831225535 | 18 | 114 | 3.2 | 3.2 | 0.00 | 0.00 | 0.00 | 76 | 1018.1 |
| 20260831225030 | 19 | 320 | 0.0 | 0.0 | 0.00 | 0.00 | 0.00 | 74 | 1018.0 |
| 20260831224525 | 19 | 298 | 0.0 | 0.0 | 0.00 | 0.00 | 0.00 | 72 | 1018.2 |
| 20260831224021 | 19 | 315 | 0.0 | 0.0 | 0.00 | 0.00 | 0.00 | 71 | 1018.1 |
| 20260831223515 | 20 | 45 | 0.0 | 1.6 | 0.00 | 0.00 | 0.00 | 69 | 1018.3 |
| 20260831223012 | 20 | 65 | 1.6 | 1.6 | 0.00 | 0.00 | 0.00 | 68 | 1018.2 |
| 20260831222508 | 20 | 332 | 1.6 | 3.2 | 0.00 | 0.00 | 0.00 | 68 | 1018.3 |
| 20260831222007 | 20 | 251 | 1.6 | 1.6 | 0.00 | 0.00 | 0.00 | 68 | 1018.1 |
| 20260831221504 | 20 | 329 | 1.6 | 1.6 | 0.00 | 0.00 | 0.00 | 67 | 1018.3 |
| 20260831220958 | 21 | 88 | 0.0 | 0.0 | 0.00 | 0.00 | 0.00 | 66 | 1018.2 |
| 20260831220454 | 21 | 81 | 1.6 | 1.6 | 0.00 | 0.00 | 0.00 | 67 | 1018.2 |
| 20260831215949 | 21 | 315 | 0.0 | 1.6 | 0.00 | 0.00 | 0.00 | 64 | 1018.2 |
| 20260831215444 | 21 | 309 | 0.0 | 0.0 | 0.00 | 0.00 | 0.00 | 65 | 1018.0 |
| 20260831214940 | 21 | 9 | 3.2 | 4.8 | 0.00 | 0.00 | 0.00 | 65 | 1018.2 |
| 20260831214437 | 22 | 198 | 3.2 | 4.8 | 0.00 | 0.00 | 0.00 | 63 | 1018.2 |
| 20260831213933 | 22 | 261 | 3.2 | 4.8 | 0.00 | 0.00 | 0.00 | 61 | 1018.4 |
| 20260831213429 | 22 | 292 | 1.6 | 1.6 | 0.00 | 0.00 | 0.00 | 62 | 1018.2 |
| 20260831212929 | 22 | 341 | 1.6 | 1.6 | 0.00 | 0.00 | 0.00 | 63 | 1018.2 |
| 20260831212426 | 22 | 312 | 1.6 | 3.2 | 0.00 | 0.00 | 0.00 | 60 | 1018.1 |
| 20260831211925 | 23 | 204 | 6.4 | 6.4 | 0.00 | 0.00 | 0.00 | 58 | 1018.1 |
| 20260831211420 | 23 | 300 | 0.0 | 0.0 | 0.00 | 0.00 | 0.00 | 58 | 1018.3 |
| 20260831210914 | 23 | 336 | 1.6 | 1.6 | 0.00 | 0.00 | 0.00 | 56 | 1018.2 |
| 20260831210410 | 23 | 300 | 0.0 | 1.6 | 0.00 | 0.00 | 0.00 | 59 | 1018.3 |
| 20260831205905 | 22 | 161 | 3.2 | 3.2 | 0.00 | 0.00 | 0.00 | 59 | 1018.2 |
| 20260831205401 | 23 | 297 | 4.8 | 6.4 | 0.00 | 0.00 | 0.00 | 59 | 1018.3 |
| 20260831204855 | 23 | 45 | 1.6 | 1.6 | 0.00 | 0.00 | 0.00 | 59 | 1018.2 |
| 20260831204354 | 23 | 189 | 3.2 | 4.8 | 0.00 | 0.00 | 0.00 | 58 | 1018.4 |
| 20260831203854 | 23 | 271 | 0.0 | 1.6 | 0.00 | 0.00 | 0.00 | 59 | 1018.4 |
| 20260831203349 | 23 | 254 | 1.6 | 3.2 | 0.00 | 0.00 | 0.00 | 59 | 1018.6 |
| 20260831202847 | 23 | 324 | 0.0 | 0.0 | 0.00 | 0.00 | 0.00 | 63 | 1018.3 |
| 20260831202342 | 22 | 139 | 4.8 | 4.8 | 0.00 | 0.00 | 0.00 | 61 | 1018.4 |
| 20260831201836 | 23 | 306 | 3.2 | 4.8 | 0.00 | 0.00 | 0.00 | 60 | 1018.4 |
| 20260831201335 | 23 | 296 | 3.2 | 3.2 | 0.00 | 0.00 | 0.00 | 59 | 1018.5 |
| 20260831200831 | 23 | 213 | 3.2 | 4.8 | 0.00 | 0.00 | 0.00 | 59 | 1018.3 |
| 20260831200326 | 23 | 146 | 1.6 | 1.6 | 0.00 | 0.00 | 0.00 | 57 | 1018.2 |
| 20260831195821 | 23 | 243 | 1.6 | 1.6 | 0.00 | 0.00 | 0.00 | 55 | 1018.6 |
| 20260831195317 | 23 | 198 | 1.6 | 3.2 | 0.00 | 0.00 | 0.00 | 55 | 1018.4 |
| 20260831194813 | 23 | 187 | 3.2 | 3.2 | 0.00 | 0.00 | 0.00 | 52 | 1018.5 |
| 20260831194308 | 23 | 292 | 1.6 | 3.2 | 0.00 | 0.00 | 0.00 | 53 | 1018.5 |
| 20260831193806 | 24 | 172 | 4.8 | 9.7 | 0.00 | 0.00 | 0.00 | 51 | 1018.7 |
| 20260831193302 | 24 | 227 | 4.8 | 6.4 | 0.00 | 0.00 | 0.00 | 50 | 1018.7 |
| 20260831192756 | 23 | 272 | 4.8 | 4.8 | 0.00 | 0.00 | 0.00 | 50 | 1018.6 |
| 20260831192252 | 24 | 177 | 3.2 | 4.8 | 0.00 | 0.00 | 0.00 | 50 | 1018.5 |
| 20260831191747 | 25 | 270 | 0.0 | 0.0 | 0.00 | 0.00 | 0.00 | 50 | 1018.7 |
| 20260831191244 | 26 | 292 | 0.0 | 0.0 | 0.00 | 0.00 | 0.00 | 42 | 1018.5 |
| 20260831190738 | 25 | 207 | 3.2 | 3.2 | 0.00 | 0.00 | 0.00 | 42 | 1018.5 |
| 20260831190233 | 25 | 84 | 3.2 | 4.8 | 0.00 | 0.00 | 0.00 | 42 | 1018.5 |
| 20260831185733 | 26 | 70 | 1.6 | 1.6 | 0.00 | 0.00 | 0.00 | 41 | 1018.6 |
| 20260831185229 | 26 | 256 | 0.0 | 0.0 | 0.00 | 0.00 | 0.00 | 39 | 1018.8 |
| 20260831184727 | 25 | 292 | 1.6 | 3.2 | 0.00 | 0.00 | 0.00 | 40 | 1018.7 |
| 20260831184224 | 25 | 256 | 3.2 | 4.8 | 0.00 | 0.00 | 0.00 | 41 | 1018.7 |
| 20260831183723 | 25 | 268 | 3.2 | 4.8 | 0.00 | 0.00 | 0.00 | 39 | 1018.9 |
| 20260831183218 | 25 | 325 | 4.8 | 4.8 | 0.00 | 0.00 | 0.00 | 38 | 1019.0 |
| 20260831182717 | 25 | 325 | 0.0 | 1.6 | 0.00 | 0.00 | 0.00 | 39 | 1018.8 |
| 20260831182213 | 25 | 203 | 1.6 | 1.6 | 0.00 | 0.00 | 0.00 | 38 | 1018.9 |
| 20260831181712 | 25 | 29 | 1.6 | 1.6 | 0.00 | 0.00 | 0.00 | 37 | 1019.0 |
| 20260831181208 | 25 | 299 | 1.6 | 3.2 | 0.00 | 0.00 | 0.00 | 39 | 1018.9 |
| 20260831180703 | 25 | 259 | 0.0 | 0.0 | 0.00 | 0.00 | 0.00 | 46 | 1019.1 |
| 20260831180158 | 24 | 47 | 1.6 | 3.2 | 0.00 | 0.00 | 0.00 | 44 | 1019.1 |
| 20260831175657 | 24 | 189 | 1.6 | 1.6 | 0.00 | 0.00 | 0.00 | 44 | 1019.0 |
| 20260831175154 | 24 | 254 | 1.6 | 1.6 | 0.00 | 0.00 | 0.00 | 43 | 1019.2 |
| 20260831174654 | 25 | 302 | 1.6 | 3.2 | 0.00 | 0.00 | 0.00 | 46 | 1019.4 |
| 20260831174149 | 24 | 316 | 1.6 | 1.6 | 0.00 | 0.00 | 0.00 | 44 | 1019.3 |
| 20260831173648 | 24 | 338 | 3.2 | 3.2 | 0.00 | 0.00 | 0.00 | 45 | 1019.4 |
| 20260831173144 | 23 | 301 | 1.6 | 1.6 | 0.00 | 0.00 | 0.00 | 51 | 1019.4 |
| 20260831172643 | 23 | 30 | 3.2 | 4.8 | 0.00 | 0.00 | 0.00 | 46 | 1019.3 |
| 20260831172138 | 23 | 45 | 4.8 | 4.8 | 0.00 | 0.00 | 0.00 | 45 | 1019.4 |
| 20260831171633 | 24 | 341 | 4.8 | 4.8 | 0.00 | 0.00 | 0.00 | 49 | 1019.5 |
| 20260831171131 | 24 | 59 | 3.2 | 4.8 | 0.00 | 0.00 | 0.00 | 46 | 1019.5 |
| 20260831170627 | 24 | 294 | 3.2 | 4.8 | 0.00 | 0.00 | 0.00 | 46 | 1019.7 |
| 20260831170124 | 23 | 304 | 0.0 | 0.0 | 0.00 | 0.00 | 0.00 | 50 | 1019.6 |
| 20260831165619 | 23 | 254 | 1.6 | 1.6 | 0.00 | 0.00 | 0.00 | 48 | 1019.8 |
| 20260831165116 | 23 | 232 | 3.2 | 3.2 | 0.00 | 0.00 | 0.00 | 46 | 1019.9 |
| 20260831164611 | 23 | 272 | 0.0 | 0.0 | 0.00 | 0.00 | 0.00 | 46 | 1019.7 |
| 20260831164107 | 23 | 264 | 0.0 | 1.6 | 0.00 | 0.00 | 0.00 | 47 | 1019.8 |
| 20260831163601 | 23 | 237 | 3.2 | 3.2 | 0.00 | 0.00 | 0.00 | 47 | 1020.0 |
| 20260831163057 | 23 | 298 | 3.2 | 4.8 | 0.00 | 0.00 | 0.00 | 46 | 1020.1 |
| 20260831162556 | 22 | 25 | 0.0 | 1.6 | 0.00 | 0.00 | 0.00 | 47 | 1020.1 |
| 20260831162054 | 22 | 229 | 3.2 | 3.2 | 0.00 | 0.00 | 0.00 | 47 | 1020.2 |
| 20260831161550 | 23 | 263 | 4.8 | 6.4 | 0.00 | 0.00 | 0.00 | 47 | 1020.2 |
| 20260831161046 | 22 | 300 | 0.0 | 1.6 | 0.00 | 0.00 | 0.00 | 52 | 1020.0 |
| 20260831160539 | 23 | 304 | 4.8 | 6.4 | 0.00 | 0.00 | 0.00 | 46 | 1020.0 |
| 20260831160035 | 22 | 5 | 1.6 | 3.2 | 0.00 | 0.00 | 0.00 | 50 | 1020.1 |
| 20260831155530 | 22 | 233 | 3.2 | 4.8 | 0.00 | 0.00 | 0.00 | 50 | 1020.1 |
| 20260831155024 | 22 | 323 | 3.2 | 3.2 | 0.00 | 0.00 | 0.00 | 52 | 1020.2 |
| 20260831154521 | 21 | 269 | 3.2 | 4.8 | 0.00 | 0.00 | 0.00 | 54 | 1020.2 |
| 20260831154020 | 22 | 42 | 3.2 | 4.8 | 0.00 | 0.00 | 0.00 | 51 | 1020.4 |
| 20260831153521 | 21 | 87 | 4.8 | 4.8 | 0.00 | 0.00 | 0.00 | 52 | 1020.3 |
| 20260831153018 | 22 | 49 | 4.8 | 4.8 | 0.00 | 0.00 | 0.00 | 50 | 1020.5 |
| 20260831152513 | 21 | 348 | 3.2 | 4.8 | 0.00 | 0.00 | 0.00 | 55 | 1020.5 |
| 20260831152008 | 21 | 349 | 4.8 | 9.7 | 0.00 | 0.00 | 0.00 | 54 | 1020.4 |
| 20260831151508 | 21 | 334 | 0.0 | 0.0 | 0.00 | 0.00 | 0.00 | 53 | 1020.6 |
| 20260831151002 | 21 | 345 | 1.6 | 3.2 | 0.00 | 0.00 | 0.00 | 54 | 1020.7 |
| 20260831150458 | 21 | 351 | 3.2 | 3.2 | 0.00 | 0.00 | 0.00 | 56 | 1020.8 |
| 20260831145958 | 21 | 79 | 3.2 | 4.8 | 0.00 | 0.00 | 0.00 | 52 | 1020.7 |
| 20260831145453 | 21 | 353 | 1.6 | 1.6 | 0.00 | 0.00 | 0.00 | 54 | 1020.6 |
| 20260831144949 | 21 | 328 | 1.6 | 3.2 | 0.00 | 0.00 | 0.00 | 61 | 1020.8 |
| 20260831144444 | 21 | 267 | 3.2 | 3.2 | 0.00 | 0.00 | 0.00 | 58 | 1021.0 |
| 20260831143940 | 21 | 331 | 0.0 | 0.0 | 0.00 | 0.00 | 0.00 | 58 | 1021.0 |
| 20260831143434 | 20 | 216 | 3.2 | 3.2 | 0.00 | 0.00 | 0.00 | 58 | 1020.9 |
| 20260831142930 | 20 | 256 | 0.0 | 1.6 | 0.00 | 0.00 | 0.00 | 60 | 1021.0 |
| 20260831142426 | 20 | 57 | 4.8 | 6.4 | 0.00 | 0.00 | 0.00 | 57 | 1020.8 |
| 20260831141920 | 20 | 282 | 3.2 | 3.2 | 0.00 | 0.00 | 0.00 | 57 | 1020.8 |
| 20260831141414 | 20 | 71 | 3.2 | 4.8 | 0.00 | 0.00 | 0.00 | 55 | 1020.7 |
| 20260831140909 | 20 | 22 | 3.2 | 4.8 | 0.00 | 0.00 | 0.00 | 57 | 1021.0 |
| 20260831140404 | 20 | 334 | 1.6 | 3.2 | 0.00 | 0.00 | 0.00 | 58 | 1021.0 |
| 20260831135902 | 20 | 245 | 4.8 | 4.8 | 0.00 | 0.00 | 0.00 | 57 | 1020.9 |
| 20260831135356 | 20 | 322 | 3.2 | 4.8 | 0.00 | 0.00 | 0.00 | 60 | 1021.1 |
| 20260831134852 | 20 | 64 | 6.4 | 6.4 | 0.00 | 0.00 | 0.00 | 58 | 1021.0 |
| 20260831134349 | 20 | 7 | 1.6 | 1.6 | 0.00 | 0.00 | 0.00 | 60 | 1021.2 |
| 20260831133848 | 20 | 41 | 4.8 | 4.8 | 0.00 | 0.00 | 0.00 | 59 | 1020.9 |
| 20260831133342 | 19 | 352 | 3.2 | 3.2 | 0.00 | 0.00 | 0.00 | 64 | 1020.8 |
| 20260831132838 | 20 | 266 | 3.2 | 4.8 | 0.00 | 0.00 | 0.00 | 62 | 1020.9 |
| 20260831132332 | 19 | 30 | 0.0 | 1.6 | 0.00 | 0.00 | 0.00 | 64 | 1020.6 |
| 20260831131827 | 19 | 276 | 3.2 | 4.8 | 0.00 | 0.00 | 0.00 | 63 | 1020.7 |
| 20260831131323 | 19 | 290 | 0.0 | 1.6 | 0.00 | 0.00 | 0.00 | 66 | 1020.7 |
| 20260831130818 | 18 | 292 | 3.2 | 4.8 | 0.00 | 0.00 | 0.00 | 68 | 1020.6 |
| 20260831130313 | 18 | 10 | 1.6 | 3.2 | 0.00 | 0.00 | 0.00 | 69 | 1020.5 |